Regional Weather Roundup
Issued by NWS

Home | Current Version | Previous Version | Text Only | Print | Product List | Glossary Off
Versions: 1 2 3 4 5 6 7 8 9 10 11 12 13 14 15 16 17 18 19 20 21 22 23 24 25 26 27 28 29 30 31 32 33 34 35 36 37 38 39 40 41 42 43 44 45 46 47 48 49 50

000
ASUS43 KDMX 230106
RWRIA

WEATHER ROUNDUP FOR IOWA
NATIONAL WEATHER SERVICE DES MOINES IA
800 PM CDT SAT JUL 22 2017

NOTE: "FAIR" INDICATES FEW OR NO CLOUDS BELOW 12,000 FEET WITH NO
SIGNIFICANT WEATHER AND/OR OBSTRUCTIONS TO VISIBILITY.

* - THESE STATIONS ARE NOT NWS STATIONS...THUS NOT UNDER NWS
QUALITY CONTROL.  THEY ALSO DO NOT REPORT WEATHER SUCH
AS PRECIPITATION OR FOG.

IAZ001>003-012>014-020>022-031>034-043>046-230200-
   NORTHWEST IOWA

CITY           SKY/WX    TMP DP  RH WIND       PRES   REMARKS
CARROLL *      CLOUDY    81  77  89 CALM      29.87F HX  88
CHEROKEE *     CLOUDY    82  71  71 NW5       29.89R HX  86
DENISON *      CLOUDY    77  75  94 NW3       29.91R
ORANGE CITY *  PTCLDY    82  75  78 NW3       29.91S HX  89
SHELDON *      CLOUDY    79  70  73 N5        29.89S HX  81
SIOUX CITY     CLOUDY    83  76  79 NW3       29.89S HX  91
SPENCER        PTCLDY    81  72  74 NW6       29.88F HX  85
STORM LAKE *   CLOUDY    79  73  83 W5        29.90S HX  82
$$

IAZ055>058-069>071-079>083-090>094-230200-
   SOUTHWEST IOWA

CITY           SKY/WX    TMP DP  RH WIND       PRES   REMARKS
ATLANTIC *     CLOUDY    81  77  89 N7        29.88R HX  88
AUDUBON *      MOCLDY    81  75  83 N3        29.90R HX  86
CLARINDA *     CLOUDY    82  79  89 CALM      29.89R HX  93
COUNCIL BLFS * PTCLDY    81  79  94 N6        29.90R HX  89
CRESTON *      CLOUDY    82  73  74 N7        29.90R HX  88
HARLAN  *      CLOUDY    79  77  94 N5        29.92R HX  83
LAMONI         CLEAR     86  74  67 N9        29.86R HX  94
RED OAK *      CLOUDY    82  77  83 N9        29.87S HX  91
SHENANDOAH *   CLOUDY    84  79  84 NE5       29.88R HX  96
$$

IAZ047>049-059>061-072>074-084-230200-
   CENTRAL IOWA

CITY           SKY/WX    TMP DP  RH WIND       PRES   REMARKS
AMES           CLOUDY    82  75  79 CALM      29.86R HX  89
ANKENY *       CLOUDY    82  73  74 CALM      29.87R HX  88
BOONE *        CLOUDY    81  73  78 CALM      29.87R HX  85
CHARITON *     CLOUDY    84  75  74 NE6       29.85S HX  92
DES MOINES     CLOUDY    84  73  69 N5        29.85S HX  90
GRINNELL*      PTCLDY    79  74  86 CALM      29.87R HX  82
KNOXVILLE *    PTCLDY    82  72  69 N7        29.84S HX  87
MARSHALLTOWN   CLOUDY    81  75  82 CALM      29.85R HX  87
NEWTON *       PTCLDY    81  73  78 NW5       29.86S HX  85
PELLA *        CLEAR     82  72  73 CALM      29.86S HX  86
$$

IAZ004>006-015-016-023>025-035-036-230200-
   NORTH CENTRAL IOWA

CITY           SKY/WX    TMP DP  RH WIND       PRES   REMARKS
ALGONA *       CLEAR     82  73  74 NW5       29.86S HX  88
CLARION *      MOCLDY    81  79  94 SW3       29.86R HX  89
ESTHERVILLE    CLEAR     79  72  79 N7        29.87S HX  82
FORT DODGE *   CLOUDY    82  73  74 NW6       29.87R HX  88
MASON CITY     CLEAR     82  74  76 NW5       29.86F HX  88
FOREST CITY *    N/A     82  72  69 NW8       29.85S HX  87
WEBSTER CITY * CLOUDY    81  75  83 SW6       29.85R HX  86
IOWA FALLS *     N/A     81  75  83 CALM      29.87R HX  87
$$

IAZ007>011-017>019-026>030-037>042-050>054-066-230200-
   NORTHEAST IOWA

CITY           SKY/WX    TMP DP  RH WIND       PRES   REMARKS
CEDAR RAPIDS   CLEAR     78  77  96 NW5       29.82F HX  81
CHARLES CITY * PTCLDY    79  77  94 NW5       29.84F HX  83
DECORAH *      CLEAR     79  73  83 CALM      29.82F HX  82
DUBUQUE        MOCLDY    79  74  84 CALM      29.83F HX  82
MONTICELLO *   PTCLDY    79  77  94 CALM      29.82S HX  83
OELWEIN *        N/A    N/A N/A N/A MISG        N/A
WATERLOO       CLOUDY    80  72  76 CALM      29.82S HX  84
$$

IAZ064-065-067-068-078-230200-
   EAST CENTRAL IOWA

CITY           SKY/WX    TMP DP  RH WIND       PRES   REMARKS
DAVENPORT      CLOUDY    79  74  84 N3        29.84R HX  82
IOWA CITY      CLOUDY    83  74  74 NW8       29.83S HX  89
MT. PLEASANT * CLOUDY    83  76  79 N7        29.82R HX  90
MUSCATINE *    CLOUDY    82  75  78 N6        29.82R HX  89
QUAD CITIES    CLOUDY    83  73  72 NW3       29.81R HX  89
$$

IAZ062-063-075>077-085>089-095>099-230200-
   SOUTHEAST IOWA

CITY           SKY/WX    TMP DP  RH WIND       PRES   REMARKS
BURLINGTON     CLOUDY    84  78  82 N8        29.80R HX  95
FAIRFIELD *    CLOUDY    82  75  78 N10       29.84R HX  89
FORT MADISON * MOCLDY    84  79  84 N5        29.82R HX  96
KEOKUK *       PTCLDY    82  81  94 W6        29.79R HX  95
OSKALOOSA *      N/A     80  72  76 N5        29.85R HX  84
CENTERVILLE *    N/A     82  75  78 N6        29.86R HX  89
OTTUMWA        PTCLDY    83  74  74 N8        29.85R HX  89
WASHINGTON *   MOCLDY    81  77  89 N7        29.84R HX  88
$$

ABBREVIATIONS USED IN REMARKS
   TC - TEMPERATURES IN CELSIUS
  WCI - WIND CHILL INDEX
   HX - HEAT INDEX
  VSB - VISIBILITY
$$




USA.gov is the U.S. government's official web portal to all federal, state and local government web resources and services.